Location: Hancock Field Station
(44.9202°N, 120.4259°W)
Time: 01:48:27
(UTC-07:00)

Nadezhda 4 Rocket - Visible Passes

Search period start: 27 August 2014 00:00
Search period end: 06 September 2014 00:00
Orbit: 950 x 992 km, 82.9° (Epoch: 24 August)

Date Brightness Start Highest point End Pass type
(mag) Time Alt. Az. Time Alt. Az. Time Alt. Az.
27 Aug 4.5 01:37:28 55° NNW 01:37:28 55° NNW 01:42:27 10° N visible
27 Aug 6.1 03:22:03 12° WNW 03:22:36 13° WNW 03:25:12 10° NW visible
28 Aug 5.4 00:17:01 28° ENE 00:17:01 28° ENE 00:20:50 10° NNE visible
28 Aug 4.9 02:01:36 39° NW 02:01:36 39° NW 02:06:26 10° N visible
29 Aug 4.9 00:41:08 41° NE 00:41:08 41° NE 00:45:26 10° NNE visible
29 Aug 5.5 02:25:43 25° WNW 02:25:43 25° WNW 02:30:08 10° NNW visible
29 Aug 6.1 23:20:40 14° ENE 23:20:40 14° ENE 23:22:26 10° NE visible
30 Aug 4.7 01:05:15 50° N 01:05:15 50° N 01:09:45 10° N visible
30 Aug 6.0 02:49:49 16° WNW 02:49:49 16° WNW 02:53:17 10° NNW visible
30 Aug 5.7 23:44:46 22° NE 23:44:46 22° NE 23:47:52 10° NNE visible
31 Aug 5.0 01:29:21 42° NNW 01:29:21 42° NNW 01:33:51 10° N visible
01 Sep 5.2 00:08:52 33° NE 00:08:52 33° NE 00:12:37 10° NNE visible
01 Sep 5.4 01:53:26 29° NW 01:53:26 29° NW 01:57:40 10° N visible
01 Sep 6.2 22:48:22 11° ENE 22:48:22 11° ENE 22:48:42 10° NE visible
02 Sep 5.0 00:32:57 43° NNE 00:32:57 43° NNE 00:37:02 10° N visible
02 Sep 5.9 02:17:31 19° NW 02:17:31 19° NW 02:21:05 10° NNW visible
02 Sep 5.9 23:12:27 18° NE 23:12:27 18° NE 23:14:48 10° NE visible
03 Sep 5.0 00:57:01 42° NNW 00:57:01 42° NNW 01:01:12 10° N visible
03 Sep 6.3 02:41:36 11° WNW 02:41:36 11° WNW 02:43:10 10° NW visible
03 Sep 5.5 23:36:31 27° NE 23:36:31 27° NE 23:39:44 10° NNE visible
04 Sep 5.4 01:21:06 32° NW 01:21:06 32° NW 01:25:08 10° N visible
05 Sep 5.2 00:00:35 36° NNE 00:00:35 36° NNE 00:04:16 10° NNE visible
05 Sep 5.8 01:45:09 22° NW 01:45:09 22° NW 01:48:45 10° NNW visible
05 Sep 6.0 22:40:03 14° NE 22:40:03 14° NE 22:41:35 10° NE visible
